Location: ČR
(50.0000°N, 15.0000°E)
Time: 00:53:06
(UTC+00:00)

ISS - Pass Details

Date: 30 September 2021
Orbit: 417 x 423 km, 51.6° (Epoch: 21 October)

Event Time Altitude Azimuth Distance (km) Brightness Sun altitude
Rises 19:03:12 0° 287° (WNW) 2,367 1.5 -23.2°
Reaches altitude 10° 19:05:26 10° 277° (W) 1,501 0.0 -23.6°
Enters shadow 19:07:37 27° 243° (WSW) 835 -2.0 -23.9°
